Flag for Canada Weather past 2 weeks in Abbotsford, British Columbia, Canada

Now
70 °F

Overcast.


Feels Like: 70 °F
Forecast: 54 / 58 °F
Wind: 9 mph from Southwest

Location: Abbotsford

Current Time: Sep 1, 2014 at 6:12:54 PM

Latest Report: Sep 1, 2014 at 5:00 PM


Visibility: 20 mi

Pressure: 30.03 "Hg

Humidity: 57%

Dew point: 54 °F

Location of AbbotsfordLocation

Historic Weather in Abbotsford — Graph

°F

Abbotsford temperature yesterday

Maximum temperature yesterday: 70 °F (at 3:00 PM)
Minimum temperature yesterday: 55 °F (at 7:00 AM)
Average temperature yesterday: 61 °F

Past Weeks' High & Low Weather Summary

 TemperatureHumidityPressure
High86 °F (Aug 26, 4:00 PM)100% (Aug 18, 2:00 AM)30.15 "Hg (Aug 18, 2:00 AM)
Low54 °F (Aug 21, 5:00 AM)42% (Aug 23, 6:00 PM)29.76 "Hg (Aug 19, 8:00 PM)
Average66 °F76%29.98 "Hg
* Reported Aug 17 4:00 PM — Sep 1 4:00 PM, Abbotsford, Weather by CustomWeather, © 2014

Note: Actual official high and low records may vary slightly from our data, if they occured in-between our weather recording intervals... More about our weather records

Advertising

Abbotsford weather history for previous 24 hours

 ConditionsComfort  
Time TempWeatherWind HumidityBarometerVisibility
4:00 PM
Sep 1
70 °FPartly sunny.10 mph46%30.03 "Hg20 mi
3:00 PM72 °FPartly sunny.13 mph50%30.04 "Hg20 mi
2:00 PM70 °FBroken clouds.8 mph53%30.05 "Hg20 mi
1:00 PM68 °FPartly sunny.7 mph60%30.05 "Hg25 mi
12:00 PM68 °FBroken clouds.6 mph60%30.07 "Hg25 mi
11:00 AM66 °FBroken clouds.6 mph64%30.08 "Hg25 mi
10:00 AM64 °FPartly sunny.2 mph73%30.09 "Hg20 mi
9:00 AM61 °FPartly sunny.No wind77%30.08 "Hg20 mi
8:00 AM57 °FPartly sunny.No wind88%30.08 "Hg20 mi
7:00 AM55 °FPassing clouds.No wind88%30.07 "Hg20 mi
6:00 AM55 °FPassing clouds.2 mph88%30.06 "Hg15 mi
5:00 AM55 °FPartly cloudy.5 mph94%30.05 "Hg15 mi
4:00 AM55 °FPassing clouds.5 mph94%30.05 "Hg15 mi
3:00 AM55 °FPassing clouds.5 mph94%30.05 "Hg15 mi
2:00 AM57 °FOvercast.2 mph88%30.06 "Hg15 mi
1:00 AM59 °FOvercast.3 mph82%30.05 "Hg15 mi
12:00 AM59 °FOvercast.2 mph82%30.05 "Hg15 mi
11:00 PM
Aug 31
61 °FOvercast.2 mph77%30.04 "Hg15 mi
10:00 PM61 °FOvercast.5 mph77%30.04 "Hg15 mi
9:00 PM63 °FPassing clouds.No wind68%30.03 "Hg10 mi
8:00 PM63 °FPartly sunny.6 mph68%30.03 "Hg20 mi
7:00 PM63 °FPartly sunny.8 mph68%30.03 "Hg30 mi
6:00 PM68 °FScattered clouds.15 mph56%30.02 "Hg25 mi
Weather by CustomWeather, © 2014

See weather overviewHow to use our weather pages